Погода в Мозыре

Погода в Мозыре : погода сейчас, прогноз погоды и архив. Всё, что Вы хотите узнать о погоде в Мозыре!

Хотите узнать прогноз погоды в Мозыре? Тогда Вам сюда: Погода в Мозыре

Поиск расширенной информации на нашем сайте:

Другие новости

Новости СМИ2

Главная страница сайта

Новости сайта

03.07.2017

Напоминаем, что на нашем специализированном сайте Метеоцентр.Азия вы можете получить высокодетализированные автоматические прогнозы погоды по пунктам России, СНГ и мира в авиационном формате (включающие направление и скорость ветра, видимость, явления погоды, количество и форму облачности, нижнюю и верхнюю границу облачности).


Погода в Мозыре - сегодня

Время (UTC), дата Ветер
(°,м/с) 
Видим.   Явления Облачность Т
(°С)
Тd
(°С)
f(%) Тe
(°С)
Pmin
(гПа)
dP
(гПа)
Po
(мм)
O2
(г/м3)
Тmin Tmax R s Состояние
почвы
00 17.05.18 тихо ()   10 км    ясно 
+16 +11.5 75 +19  1009.9  -0.2  741  280           
03 17.05.18 220 (ЮЗ) 12000 м    4/0 средняя 
[Ac trans]
+13.4 +10.4 82 +17  1010.9  0.8  741  283           
09 17.05.18 250 (З) 20000 м    8/5 1000 м средняя 
[Cu med, cong|Ac trans]
+20.2 +9.2 49 +21  1012  0.6  743  277           
12 17.05.18 150 (ЮВ) 20000 м    8/5 1000 м средняя 
[Cu med, cong|Ac trans]
+20.5 +9.1 48 +21  1011.8  -0.1  743  277           
15 17.05.18 200 (Ю) 20000 м    9/4 600 м средняя, верхняя 
[Cu med, cong|Ac trans|Ci]
+22.2 +8 40 +22  1010.6  -1.1  742  275           
18 17.05.18 тихо ()   13000 м    6/0 средняя, верхняя 
[Ac trans|Ci fib]
+17.4 +8.6 56 +17  1010.6  -0.4  741  279    +23.1       
21 17.05.18 тихо ()   10 км    8/0 средняя 
[Ac und]
+15.9 +8.4 61 +16  1010.5  -0.2  741  281           
00 18.05.18 тихо ()   10 км    ясно 
+12.8 +8.4 75 +13  1009.9  -0.9  741  284           
03 18.05.18 тихо ()   10 км    ясно 
+11.3 +8.5 83 +11  1009.2  -0.8  740  285           
06 18.05.18 270 (З) 20000 м    3/0 средняя, верхняя 
[Ac cast|Ci fib]
+19.3 +10 55 +22  1008.1  -0.4  740  277  +11.2         
09 18.05.18 210 (ЮЗ) 20000 м    8/5 600 м средняя, верхняя 
[Cu med, cong|Ac trans|Cc]
+21.7 +8.2 42 +22  1007.3  -0.5  739  275           
12 18.05.18 090 (В) 7000 м  гроза, ливневой дождь  10/8 600 м кучево-дожд., средняя 
[Cb calv|Ac As]
+18 +11.9 67 +23  1006.4  -1.2  738  277           
15 18.05.18 200 (Ю) 10 км  гроза без осадков{ливн. осадки}  10/8 600 м кучево-дожд., средняя 
[Cb calv|Ac As]
+15.9 +13.7 87 +24  1006.9  0.3  739  278         
18 18.05.18 тихо ()   8000 м  дымка{гроза, ливн. осадки}  10/5 600 м кучево-дожд., средняя 
[Cb calv|Ac As]
+14.4 +12.8 90 +20  1007.8  0.7  739  280    +24.1     
21 18.05.18 тихо ()   8000 м  дымка  8/0 средняя 
[Ac und]
+13.6 +12.9 96 +19  1008.4  0.5  740  281           
00 19.05.18 тихо ()   3200 м  дымка  6/0 средняя 
[Ac und]
+12 +11.7 98 +16  1008.5  740  283           
06 19.05.18 350 (С) 12000 м    8/0 средняя 
[Ac und]
+15.1 +12.6 85 +21  1010  1.1  741  280  +11.9         
09 19.05.18 тихо ()   18000 м    8/0 средняя 
[Ac und]
+19.3 +11.1 59 +22  1011.1  1.5  742  277           
12 19.05.18 300 (СЗ) 20000 м    8/5 600 м средняя 
[Cu med, cong|Ac trans]
+21.1 +10.8 52 +24  1010.8  -0.2  742  275           
15 19.05.18 тихо () {13}  8000 м  слаб. ливневой дождь  8/5 600 м кучево-дожд., средняя 
[Cb cap|Ac trans]
+15.7 +12.2 80 +20  1013.3  743  281      0.8     
18 19.05.18 340 (С) 10 км  {ливн. осадки}  8/0 средняя 
[Ac und]
+15.7 +13 84 +23  1014.4  1.1  744  281    +22.9     
21 19.05.18 360 (С) 10 км    10/6 600 м средняя 
[Sc|Ac As]
+14.9 +12.1 83 +20  1016  1.5  745  282           
00 20.05.18 010 (С) 10 км    10/0 средняя 
[Ac As]
+13.8 +10.8 82 +17  1017.1  746  284           
06 20.05.18 050 (СВ) 20000 м    1/0 верхняя 
[Ci fib]
+14.1 +6.1 59 +14  1020.7  2.1  749  286  +10.8         
09 20.05.18 360 (С) 20000 м    3/3 1000 м 
[Cu hum]
+16.4 +2.3 39 +16  1021.1  0.6  749  284           
Время (UTC), дата Ветер
(°,м/с) 
Видим.   Явления Облачность Т
(°С)
Тd
(°С)
f(%) Тe
(°С)
Pmin
(гПа)
dP
(гПа)
Po
(мм)
O2
(г/м3)
Тmin Tmax R s Состояние
почвы

Для получения пояснительной информации подведите курсор к названию столбца.

ПОГОДА в Мозыре - архив

Всё, что Вы хотите узнать о погоде в Мозыре - удобно и подробно!

Выберите нужную дату (начиная с 1 января 2015* года) и нажмите кнопку "Найти".
Будут отображены архивные сводки погоды по пункту Мозырь, начиная с указанной даты.


Отображать данные в формате CSV (для использования в таблицах Excel)


Внимание! Наш архив погоды предназначен исключительно для личного некоммерческого использования в познавательных целях. Если Вам необходимы официальные справки о состоянии погоды (для производственных, юридических, коммерческих и т.п. целей), обращайтесь в органы Росгидромета.

*Примечание: данная дата относится к архиву по метеостанциям СССР (Россия, СНГ, Балтия).
Архив по метеостанциям Зарубежной Европы и Азии (кроме Китая) хранится 10 дней, по другим регионам земного шара (Китай, Африка, Америка, Австралия, Океания) - 1 день.

Мозырь - район местоположения метеостанции


Название, широта, долгота, высота метеостанции:
Мозырь 51.9°ш. 29.2°д. 170 м над ур. моря [Беларусь]

Дополнительная информация

В oтличие oт бoльшинства пoгoдных сайтoв мы публикуем пoдрoбную метеoинфoрмацию в детальнoм прoфессиoнальнoм фoрмате.

Характеристики температуры и влажнoсти вoздуха измеряются на высoте 2 м в тени вдали oт зданий и деревьев.
Скoрoсть ветра измеряется на высoте 10 м (на урoвне рoста челoвека скoрoсть ветра ниже в 1.5-2 раза). Если метеoстанция нахoдится в гoрoде или в лесу, тo скoрoсть ветра занижена на 2-4 м/с пo сравнению с oткрытым местoм. Скoрoсть ветра над акватoриями крупных рек и oзёр, а также на вершинах хoлмoв на 2-5 м/с выше, чем в oбычных услoвиях.
Атмoсфернoе давление в разных тoчках местнoсти мoжет значительнo oтличаться oт давления на метеoстанции, в зависимoсти oт услoвий рельефа (при пoдъёме на 10 м давление пoнижается примернo на 1 мм рт.ст.).